[[{"header":{"parameterUnit":"m.s-1","parameterCategory":2,"la1":30.2991,"la2":30.254,"lo1":-89.0895,"lo2":-89.0444,"dy":0.0017,"dx":0.0017,"nx":28,"ny":28,"refTime":"2024-06-16T09:00:00:Z","depth":"0","parameterNumber":2,"parameterNumberName":"U-component_of_CURRENTS"},"data":[0,0,0,0,0,0,0,0,0,0,0,0,0,0,0,0,0,0,0,0,0,0,0,0,0,0,0,0,0,0,0,0,0,0,0,0,0,0,0,0,0,0,0,0,0,0,0,0,0,0,0,0,0,0,0,0,0,0,0.187,0.187,0,0.1855,0.1855,0.1855,0.184,0.184,0.184,0.184,0.1797,0.1796,0.1795,0,0,0,0,0,0,0,0,0,0,0,0,0,0.1888,0.1888,0.187,0.187,0.187,0.1855,0.1855,0.1855,0.184,0.184,0.184,0.184,0.1797,0.1796,0.1795,0,0,0,0,0,0,0,0,0,0,0,0,0,0.1876,0.1887,0.187,0.1862,0.1861,0.1855,0.1855,0.1855,0.184,0.184,0.184,0.184,0.1798,0.1796,0.1794,0.1785,0,0,0.1789,0.1789,0,0,0,0,0,0,0,0,0.1876,0.1875,0.1863,0.1862,0.1862,0.1851,0.1846,0.1831,0.184,0.1846,0.184,0.184,0.1814,0.1811,0.1806,0.1783,0.1782,0.1789,0.1788,0.1788,0.1787,0,0,0,0,0,0,0,0.1877,0.1875,0.1862,0.1863,0.1862,0.1861,0.1859,0.1843,0.1828,0.1845,0.1845,0.1846,0.1813,0.1807,0.1805,0.1781,0.1789,0.1788,0.1787,0.1786,0.1798,0.1799,0,0,0,0,0,0,0.1883,0.1876,0.1863,0.1862,0.1871,0.186,0.1858,0.1853,0.1829,0.1826,0.1846,0.1845,0.181,0.1807,0.1803,0.1832,0.1788,0.1786,0.1785,0.1796,0.1798,0.1799,0,0,0,0,0,0,0.1883,0.1881,0.1863,0.1871,0.1868,0.186,0.1855,0.1853,0.1856,0.183,0.1826,0.1852,0.181,0.1805,0.1805,0.1829,0.1785,0.1784,0.1795,0.1797,0.1799,0.1864,0,0,0,0,0,0,0.1883,0.1881,0.1879,0.1871,0.1868,0.1872,0.1855,0.1853,0.1857,0.1856,0.1834,0.183,0.181,0.1807,0.1803,0.1826,0.1782,0.1793,0.1796,0.1798,0.186,0.1868,0.1874,0,0,0,0,0,0.1884,0.1883,0.1878,0.1877,0.1865,0.1873,0.1871,0.1864,0.1857,0.1865,0.1853,0.1831,0.182,0.1807,0.1801,0.1824,0.1792,0.1795,0.1798,0.1857,0.1866,0.1874,0,0,0,0,0,0,0.1883,0.1881,0.1876,0.1872,0.1878,0.1871,0.1874,0.1871,0.1867,0.1865,0.184,0.1836,0.1845,0.1827,0.1813,0.1837,0.1805,0.1807,0.1852,0.186,0.1867,0.1871,0.1781,0,0,0,0,0,0.1883,0.1884,0.1884,0.1882,0.1887,0.1883,0.1884,0.1883,0.1879,0.1877,0.1863,0.1852,0.1851,0.185,0.184,0.1848,0.1852,0.1863,0.187,0.1876,0.1877,0.1907,0.1917,0.1809,0.1809,0.1809,0,0,0.188,0.1881,0.1879,0.1883,0.1884,0.1896,0.1883,0.1893,0.1903,0.1872,0.1879,0.1872,0.1859,0.1872,0.1875,0.1861,0.1914,0.188,0.1885,0.1882,0.1911,0.1922,0.1931,0.1811,0.181,0.181,0,0,0.1883,0.1879,0.1886,0.1896,0.1908,0.1909,0.1916,0.1918,0.1921,0.193,0.1916,0.1928,0.1915,0.1919,0.1918,0.1959,0.1949,0.1958,0.1998,0.2029,0.2038,0.2046,0.2087,0.2098,0.1965,0.1965,0.1965,0,0.1881,0.1884,0.189,0.1905,0.1912,0.1918,0.193,0.1939,0.1941,0.1947,0.1941,0.1949,0.194,0.1964,0.1985,0.1975,0.1993,0.1966,0.2038,0.2046,0.2053,0.2094,0.2105,0.1969,0.1968,0.1968,0.1967,0,0.1891,0.1899,0.1907,0.1926,0.1937,0.195,0.1966,0.1978,0.1983,0.199,0.2014,0.2012,0.2016,0.2027,0.2019,0.2068,0.2067,0.2042,0.2017,0.2068,0.2108,0.2118,0.1974,0.1972,0.1971,0.197,0,0,0.1866,0.1906,0.1907,0.192,0.1948,0.1957,0.1984,0.2005,0.2029,0.204,0.2068,0.2084,0.2087,0.2087,0.2086,0.2121,0.22,0.2111,0.2111,0.2153,0.2283,0.2247,0.2255,0.219,0.2192,0.2193,0.2299,0,0.1869,0.1896,0.1917,0.1942,0.1955,0.1978,0.2003,0.2028,0.2053,0.2086,0.2101,0.2127,0.211,0.2127,0.2157,0.2183,0.2228,0.2174,0.2226,0.2228,0.2189,0.2265,0.215,0.2231,0.231,0.2311,0.2313,0,0.1861,0.1884,0.1905,0.1949,0.1957,0.1975,0.2016,0.2047,0.21,0.2123,0.2155,0.2169,0.2219,0.2198,0.2272,0.224,0.227,0.2293,0.2297,0.2243,0.221,0.2187,0.2247,0.2221,0.2329,0.2327,0.2326,0,0.1821,0.1869,0.1883,0.1897,0.195,0.1964,0.1997,0.205,0.2072,0.2154,0.2177,0.2234,0.2263,0.2305,0.2343,0.2319,0.2429,0.2396,0.2395,0.2393,0.2293,0.2279,0.2328,0.2459,0.2459,0.2459,0.2458,0,0.1802,0.1812,0.1867,0.1873,0.1894,0.1948,0.1977,0.2027,0.2088,0.2122,0.219,0.2218,0.2293,0.2348,0.2378,0.2423,0.2455,0.2422,0.2422,0.2315,0.2302,0.227,0.2243,0.2463,0.2462,0.2461,0.246,0,0.1745,0.1781,0.1801,0.1859,0.187,0.1888,0.1938,0.1971,0.2046,0.2093,0.2118,0.222,0.2303,0.2369,0.2463,0.2464,0.2446,0.2523,0.2401,0.2384,0.2332,0.2312,0.2245,0.2167,0.2541,0.2541,0.2541,0,0.1716,0.1722,0.1769,0.1776,0.1797,0.1827,0.1848,0.1929,0.1963,0.2077,0.2094,0.2205,0.2254,0.2386,0.244,0.2512,0.2433,0.2442,0.2366,0.2334,0.2313,0.2209,0.2139,0.2276,0.2273,0.2272,0.227,0,0.1664,0.1681,0.1698,0.1713,0.173,0.1744,0.1783,0.1792,0.19,0.1941,0.2015,0.2071,0.2222,0.226,0.2375,0.2388,0.2309,0.2403,0.2397,0.2137,0.1998,0.192,0.2218,0.2253,0.2255,0.2256,0.2257,0.2257,0.1617,0.1614,0.1637,0.1635,0.1655,0.1651,0.1629,0.1682,0.1705,0.1754,0.1883,0.1935,0.209,0.2228,0.2244,0.2236,0.2204,0.2169,0.2162,0.2072,0.1939,0.221,0.2219,0.222,0.2222,0.2223,0.2224,0,0.1552,0.1551,0.1558,0.1548,0.1526,0.1564,0.1572,0.1536,0.1523,0.1622,0.1669,0.1811,0.1883,0.2002,0.2095,0.2033,0.1909,0.1966,0.18,0.1754,0.2032,0.1963,0.1884,0.1884,0.1884,0.1884,0.1884,0.1884,0.152,0.149,0.1484,0.141,0.1401,0.1337,0.1314,0.1289,0.1321,0.1357,0.1431,0.153,0.1756,0.1941,0.1949,0.1892,0.1746,0.1632,0.165,0.1873,0.1891,0.1909,0.1841,0.1736,0.1736,0.1267,0.1263,0.1261]},{"header":{"parameterUnit":"m.s-1","parameterCategory":2,"la1":30.2991,"la2":30.254,"lo1":-89.0895,"lo2":-89.0444,"dy":0.0017,"dx":0.0017,"nx":28,"ny":28,"refTime":"2024-06-16T09:00:00:Z","depth":"0","parameterNumber":3,"parameterNumberName":"V-component_of_CURRENTS"},"data":[0,0,0,0,0,0,0,0,0,0,0,0,0,0,0,0,0,0,0,0,0,0,0,0,0,0,0,0,0,0,0,0,0,0,0,0,0,0,0,0,0,0,0,0,0,0,0,0,0,0,0,0,0,0,0,0,0,0,-0.0145,-0.0146,0,-0.0226,-0.0227,-0.0228,-0.0274,-0.0274,-0.0274,-0.0274,-0.0344,-0.0346,-0.0348,0,0,0,0,0,0,0,0,0,0,0,0,0,-0.0063,-0.0064,-0.0145,-0.0146,-0.0147,-0.0226,-0.0227,-0.0228,-0.0274,-0.0274,-0.0274,-0.0274,-0.0344,-0.0346,-0.0348,0,0,0,0,0,0,0,0,0,0,0,0,0,-0.0117,-0.0064,-0.0145,-0.0178,-0.0182,-0.0226,-0.0227,-0.0229,-0.0274,-0.0274,-0.0274,-0.0274,-0.0343,-0.0346,-0.0349,-0.0364,0,0,-0.0357,-0.0358,0,0,0,0,0,0,0,0,-0.0114,-0.0121,-0.0172,-0.0176,-0.018,-0.0239,-0.0224,-0.0273,-0.0274,-0.024,-0.0274,-0.0274,-0.0307,-0.0313,-0.033,-0.0367,-0.037,-0.0357,-0.0359,-0.036,-0.0361,0,0,0,0,0,0,0,-0.011,-0.0117,-0.0178,-0.0173,-0.0178,-0.02,-0.0208,-0.0234,-0.0273,-0.0243,-0.0246,-0.0254,-0.031,-0.0327,-0.0332,-0.0371,-0.0357,-0.0359,-0.0361,-0.0362,-0.0429,-0.0429,0,0,0,0,0,0,-0.0097,-0.0114,-0.0176,-0.0181,-0.0146,-0.0202,-0.021,-0.0221,-0.0273,-0.0281,-0.0253,-0.0255,-0.0322,-0.0329,-0.0334,-0.0356,-0.036,-0.0363,-0.0364,-0.0429,-0.0429,-0.0429,0,0,0,0,0,0,-0.0095,-0.0101,-0.0172,-0.0148,-0.0158,-0.0203,-0.0214,-0.0222,-0.0237,-0.0281,-0.0289,-0.0259,-0.0323,-0.0331,-0.036,-0.0359,-0.0364,-0.0366,-0.0429,-0.0429,-0.0429,-0.0399,0,0,0,0,0,0,-0.0092,-0.01,-0.0102,-0.0147,-0.0159,-0.0191,-0.0215,-0.0224,-0.0241,-0.0244,-0.0288,-0.0295,-0.0323,-0.0356,-0.0363,-0.0363,-0.0368,-0.0428,-0.0429,-0.0429,-0.04,-0.0398,-0.0397,0,0,0,0,0,-0.0089,-0.0088,-0.0101,-0.0109,-0.016,-0.0191,-0.0199,-0.0232,-0.0241,-0.0245,-0.028,-0.0294,-0.0362,-0.0359,-0.0367,-0.0367,-0.0428,-0.0429,-0.0429,-0.0401,-0.0399,-0.0397,0,0,0,0,0,0,-0.0052,-0.0094,-0.0109,-0.0122,-0.0151,-0.0198,-0.0205,-0.0226,-0.0258,-0.026,-0.03,-0.0309,-0.0335,-0.0355,-0.035,-0.0387,-0.0396,-0.0398,-0.0371,-0.037,-0.0368,-0.0343,-0.0371,0,0,0,0,0,-0.0044,-0.0055,-0.0098,-0.0106,-0.0119,-0.016,-0.0175,-0.0198,-0.0232,-0.0246,-0.0278,-0.0312,-0.0344,-0.0358,-0.0389,-0.0409,-0.0411,-0.0413,-0.0412,-0.041,-0.0395,-0.0414,-0.0413,-0.043,-0.043,-0.043,0,0,-0.0032,-0.0055,-0.0062,-0.0099,-0.0124,-0.0141,-0.017,-0.0189,-0.0203,-0.0248,-0.0273,-0.0308,-0.0348,-0.0376,-0.0388,-0.0391,-0.0404,-0.041,-0.0409,-0.0394,-0.0414,-0.0413,-0.0411,-0.043,-0.043,-0.043,0,0,-0.0013,-0.0034,-0.0039,-0.0061,-0.0094,-0.0121,-0.0122,-0.0167,-0.0186,-0.0215,-0.0253,-0.0285,-0.0329,-0.0363,-0.0384,-0.0389,-0.0396,-0.0397,-0.0368,-0.0388,-0.0386,-0.0385,-0.0369,-0.0367,-0.0395,-0.0395,-0.0395,0,0.0005,-0.001,-0.0043,-0.0054,-0.0065,-0.0107,-0.0112,-0.014,-0.0189,-0.0196,-0.0214,-0.0282,-0.0322,-0.0354,-0.0362,-0.0385,-0.0383,-0.0373,-0.0384,-0.0383,-0.0383,-0.0367,-0.0365,-0.0394,-0.0394,-0.0394,-0.0394,0,0.0014,0.0005,0.0003,-0.0025,-0.0041,-0.005,-0.009,-0.0105,-0.0129,-0.0157,-0.0188,-0.0248,-0.0281,-0.0307,-0.034,-0.0355,-0.0351,-0.0381,-0.0386,-0.0379,-0.0363,-0.0361,-0.0392,-0.0392,-0.0392,-0.0393,0,0,0.0054,0.0017,0.0018,0.0014,-0.0024,-0.0034,-0.0049,-0.0072,-0.0067,-0.0122,-0.0119,-0.0196,-0.0219,-0.0244,-0.0292,-0.0317,-0.0318,-0.0341,-0.0343,-0.0317,-0.033,-0.0335,-0.0333,-0.0352,-0.0351,-0.0351,-0.0315,0,0.0075,0.007,0.0043,0.0044,0.004,0.0007,0.0002,-0.0023,-0.0044,-0.0053,-0.0114,-0.0137,-0.0199,-0.0211,-0.0247,-0.0299,-0.0314,-0.0323,-0.0347,-0.0346,-0.0346,-0.0332,-0.0317,-0.0285,-0.0313,-0.0313,-0.0313,0,0.0097,0.0091,0.0097,0.0087,0.0084,0.0082,0.0084,0.0071,0.0047,0.0033,0.0001,-0.0044,-0.009,-0.0145,-0.0213,-0.0213,-0.0262,-0.0305,-0.0305,-0.0317,-0.0349,-0.0301,-0.0281,-0.0371,-0.031,-0.031,-0.0311,0,0.0146,0.0132,0.0144,0.0138,0.0118,0.0128,0.0121,0.0106,0.0116,0.0094,0.011,0.0039,0.0024,-0.0058,-0.0153,-0.0179,-0.0216,-0.0264,-0.0308,-0.0308,-0.0302,-0.0302,-0.0365,-0.0305,-0.0305,-0.0306,-0.0306,0,0.018,0.0189,0.0173,0.0178,0.0208,0.0179,0.0217,0.0201,0.0208,0.0241,0.0164,0.0182,0.0043,-0.0003,-0.0105,-0.0185,-0.0176,-0.0286,-0.0302,-0.029,-0.0289,-0.0374,-0.0446,-0.0304,-0.0304,-0.0305,-0.0305,0,0.0231,0.0214,0.0229,0.0224,0.0229,0.0254,0.0278,0.0309,0.0307,0.0355,0.0353,0.0302,0.0243,0.0113,-0.0004,-0.0103,-0.0255,-0.0231,-0.019,-0.0203,-0.0344,-0.0415,-0.0489,-0.0558,-0.0266,-0.0266,-0.0266,0,0.0255,0.0268,0.0275,0.0296,0.0298,0.0332,0.0362,0.036,0.0399,0.0436,0.0468,0.0426,0.0407,0.0245,0.0054,-0.0102,-0.0231,-0.0195,-0.0261,-0.0335,-0.0426,-0.0477,-0.0534,-0.0228,-0.0228,-0.0228,-0.0228,0,0.0305,0.0309,0.0321,0.0365,0.0398,0.0436,0.0479,0.0521,0.0541,0.0594,0.0651,0.0642,0.049,0.0326,0.0097,-0.0022,-0.0273,-0.0195,-0.0291,-0.0413,-0.0452,-0.0531,-0.0247,-0.0225,-0.0225,-0.0226,-0.0226,-0.0226,0.0353,0.0373,0.0393,0.0435,0.0475,0.0527,0.0563,0.0625,0.0697,0.077,0.0775,0.0785,0.0558,0.0243,0.0064,-0.0233,-0.0265,-0.0325,-0.0402,-0.0442,-0.0529,-0.0224,-0.022,-0.022,-0.022,-0.022,-0.022,0,0.0404,0.0421,0.0463,0.0502,0.055,0.0559,0.0631,0.0671,0.0761,0.0858,0.0909,0.0802,0.052,0.0219,-0.0178,-0.0395,-0.0501,-0.0511,-0.0584,-0.0636,-0.0367,-0.0385,-0.0394,-0.0394,-0.0394,-0.0394,-0.0394,-0.0393,0.0433,0.0469,0.0478,0.0551,0.0587,0.0636,0.0671,0.0743,0.0813,0.0902,0.0921,0.092,0.073,0.0047,-0.0439,-0.0585,-0.0783,-0.0795,-0.091,-0.0726,-0.0714,-0.0704,-0.0737,-0.0819,-0.082,-0.1141,-0.1144,-0.1146]}],[{"header":{"parameterUnit":"m.s-1","parameterCategory":2,"la1":30.2991,"la2":30.254,"lo1":-89.0895,"lo2":-89.0444,"dy":0.0017,"dx":0.0017,"nx":28,"ny":28,"refTime":"2024-06-16T09:00:00:Z","depth":"2","parameterNumber":2,"parameterNumberName":"U-component_of_CURRENTS"},"data":[0,0,0,0,0,0,0,0,0,0,0,0,0,0,0,0,0,0,0,0,0,0,0,0,0,0,0,0,0,0,0,0,0,0,0,0,0,0,0,0,0,0,0,0,0,0,0,0,0,0,0,0,0,0,0,0,0,0,0.1922,0.1922,0,0.1909,0.1909,0.1909,0.1894,0.1894,0.1894,0.1894,0.1852,0.1851,0.185,0,0,0,0,0,0,0,0,0,0,0,0,0,0.1938,0.1937,0.1922,0.1922,0.1922,0.1909,0.1909,0.1909,0.1894,0.1894,0.1894,0.1894,0.1853,0.1851,0.185,0,0,0,0,0,0,0,0,0,0,0,0,0,0.1927,0.1937,0.1922,0.1914,0.1914,0.1909,0.1909,0.1909,0.1894,0.1894,0.1894,0.1894,0.1853,0.1852,0.185,0.1842,0,0,0.1845,0.1845,0,0,0,0,0,0,0,0,0.1927,0.1926,0.1915,0.1915,0.1914,0.1905,0.1899,0.1886,0.1894,0.19,0.1894,0.1894,0.1868,0.1866,0.1861,0.184,0.1839,0.1845,0.1844,0.1844,0.1843,0,0,0,0,0,0,0,0.1928,0.1926,0.1915,0.1915,0.1915,0.1913,0.1911,0.1897,0.1883,0.1899,0.1898,0.19,0.1868,0.1863,0.186,0.1838,0.1845,0.1844,0.1843,0.1842,0.1856,0.1858,0,0,0,0,0,0,0.1933,0.1927,0.1915,0.1915,0.1923,0.1913,0.1911,0.1906,0.1883,0.1881,0.19,0.1899,0.1866,0.1862,0.1859,0.1889,0.1844,0.1842,0.1841,0.1855,0.1857,0.1858,0,0,0,0,0,0,0.1933,0.1932,0.1916,0.1923,0.1921,0.1913,0.1908,0.1906,0.1909,0.1885,0.1881,0.1906,0.1865,0.1861,0.1861,0.1885,0.1841,0.184,0.1854,0.1856,0.1857,0.1922,0,0,0,0,0,0,0.1934,0.1932,0.1929,0.1923,0.1921,0.1925,0.1908,0.1906,0.191,0.1909,0.1888,0.1884,0.1865,0.1863,0.1859,0.1882,0.1839,0.1852,0.1854,0.1857,0.1919,0.1926,0.1933,0,0,0,0,0,0.1934,0.1933,0.1929,0.1928,0.1917,0.1926,0.1925,0.1918,0.1911,0.1919,0.1907,0.1885,0.1876,0.1863,0.1858,0.1881,0.1851,0.1854,0.1857,0.1915,0.1925,0.1933,0,0,0,0,0,0,0.1932,0.1932,0.1927,0.1923,0.193,0.1924,0.1928,0.1925,0.1921,0.1919,0.1895,0.1891,0.19,0.1883,0.1869,0.1894,0.1863,0.1865,0.1909,0.1918,0.1925,0.1928,0.1837,0,0,0,0,0,0.1932,0.1935,0.1935,0.1934,0.1939,0.1935,0.1937,0.1936,0.1933,0.1931,0.1917,0.1908,0.1908,0.1907,0.1897,0.1907,0.1911,0.1922,0.1929,0.1935,0.1936,0.1966,0.1977,0.1868,0.1868,0.1868,0,0,0.1929,0.1931,0.193,0.1935,0.1936,0.1949,0.1936,0.1946,0.1957,0.1926,0.1934,0.1928,0.1915,0.1929,0.1933,0.1919,0.1973,0.1939,0.1944,0.1941,0.1971,0.1981,0.1991,0.187,0.1869,0.1869,0,0,0.1933,0.1929,0.1937,0.1948,0.196,0.1961,0.1969,0.1972,0.1975,0.1985,0.1971,0.1983,0.1972,0.1977,0.1976,0.2018,0.2008,0.2018,0.2058,0.2089,0.2098,0.2106,0.2146,0.2157,0.2024,0.2025,0.2025,0,0.1929,0.1935,0.1941,0.1957,0.1964,0.1971,0.1983,0.1993,0.1996,0.2002,0.1996,0.2005,0.1998,0.2023,0.2044,0.2034,0.2052,0.2025,0.2098,0.2106,0.2113,0.2152,0.2164,0.2028,0.2028,0.2027,0.2027,0,0.1941,0.195,0.1958,0.1978,0.199,0.2004,0.202,0.2033,0.2038,0.2046,0.207,0.2069,0.2074,0.2086,0.2078,0.2127,0.2126,0.2102,0.2076,0.2128,0.2166,0.2177,0.2033,0.2032,0.2031,0.203,0,0,0.1915,0.1957,0.1958,0.1972,0.2001,0.201,0.2038,0.2061,0.2085,0.2097,0.2125,0.2143,0.2146,0.2146,0.2146,0.2181,0.2259,0.217,0.217,0.2211,0.2342,0.2293,0.23,0.225,0.2252,0.2253,0.2357,0,0.1918,0.1947,0.1969,0.1995,0.2009,0.2032,0.2059,0.2084,0.211,0.2143,0.2159,0.2186,0.2169,0.2185,0.2216,0.2243,0.2287,0.2234,0.2285,0.2287,0.2237,0.231,0.2087,0.2155,0.2367,0.2369,0.237,0,0.1911,0.1935,0.1956,0.2002,0.2011,0.203,0.2071,0.2103,0.2157,0.2181,0.2213,0.2227,0.2277,0.2257,0.2331,0.23,0.2329,0.2352,0.2356,0.229,0.2257,0.2133,0.2166,0.2387,0.2386,0.2385,0.2384,0,0.1871,0.1921,0.1935,0.1949,0.2004,0.2018,0.2051,0.2106,0.2128,0.2211,0.2234,0.2292,0.2321,0.2363,0.24,0.2378,0.2486,0.2455,0.2442,0.2439,0.2247,0.2224,0.2517,0.2517,0.2517,0.2517,0.2516,0,0.1852,0.1863,0.1918,0.1925,0.1947,0.2001,0.2031,0.2082,0.2144,0.2178,0.2246,0.2275,0.235,0.2405,0.2435,0.2473,0.2511,0.2467,0.2466,0.2265,0.2244,0.243,0.2418,0.2521,0.252,0.2519,0.2518,0,0.1795,0.1831,0.1852,0.1911,0.1922,0.194,0.1992,0.2025,0.21,0.2148,0.2173,0.2274,0.2356,0.2423,0.2516,0.2511,0.2559,0.2563,0.2333,0.2302,0.2489,0.2479,0.2567,0.2567,0.2566,0.2565,0.2565,0,0.1766,0.1771,0.182,0.1827,0.1848,0.1879,0.1901,0.1983,0.2017,0.2131,0.2148,0.2257,0.2303,0.2427,0.2451,0.2511,0.256,0.2349,0.2259,0.2505,0.2496,0.2487,0.2479,0.2043,0.2038,0.2035,0.2031,0,0.1713,0.173,0.1748,0.1763,0.1781,0.1795,0.1836,0.1846,0.1954,0.1997,0.207,0.2123,0.2241,0.2203,0.2296,0.2295,0.232,0.2274,0.2593,0.2063,0.2018,0.2006,0.2014,0.1997,0.2001,0.2003,0.2005,0.2006,0.1666,0.1663,0.1687,0.1685,0.1706,0.1704,0.1682,0.1749,0.1776,0.1836,0.1937,0.1962,0.201,0.203,0.2,0.1996,0.2157,0.2067,0.2076,0.2089,0.2007,0.1964,0.1919,0.1921,0.1924,0.1926,0.1928,0,0.1606,0.1601,0.1608,0.16,0.1587,0.1616,0.1625,0.1618,0.1625,0.1714,0.1758,0.1639,0.1612,0.1671,0.1605,0.1642,0.1597,0.1582,0.1487,0.1523,0.1555,0.1442,0.1205,0.1203,0.1201,0.1199,0,0,0.1576,0.1549,0.1543,0.1478,0.1465,0.1422,0.1401,0.1422,0.1468,0.1476,0.1462,0.1563,0.1622,0.1386,0.1368,0.1275,0.139,0.1228,0.1807,0.1731,0.176,0.1836,0.1704,0,0,0,0,0]},{"header":{"parameterUnit":"m.s-1","parameterCategory":2,"la1":30.2991,"la2":30.254,"lo1":-89.0895,"lo2":-89.0444,"dy":0.0017,"dx":0.0017,"nx":28,"ny":28,"refTime":"2024-06-16T09:00:00:Z","depth":"2","parameterNumber":3,"parameterNumberName":"V-component_of_CURRENTS"},"data":[0,0,0,0,0,0,0,0,0,0,0,0,0,0,0,0,0,0,0,0,0,0,0,0,0,0,0,0,0,0,0,0,0,0,0,0,0,0,0,0,0,0,0,0,0,0,0,0,0,0,0,0,0,0,0,0,0,0,-0.0168,-0.0168,0,-0.0248,-0.0249,-0.025,-0.0295,-0.0296,-0.0296,-0.0296,-0.0366,-0.0368,-0.037,0,0,0,0,0,0,0,0,0,0,0,0,0,-0.0086,-0.0087,-0.0167,-0.0168,-0.0169,-0.0248,-0.0249,-0.025,-0.0295,-0.0296,-0.0296,-0.0296,-0.0366,-0.0368,-0.037,0,0,0,0,0,0,0,0,0,0,0,0,0,-0.0141,-0.0088,-0.0167,-0.02,-0.0204,-0.0248,-0.0249,-0.0251,-0.0295,-0.0296,-0.0296,-0.0296,-0.0365,-0.0368,-0.037,-0.0386,0,0,-0.0379,-0.038,0,0,0,0,0,0,0,0,-0.0137,-0.0144,-0.0195,-0.0198,-0.0202,-0.0261,-0.0246,-0.0295,-0.0295,-0.0262,-0.0296,-0.0296,-0.0329,-0.0335,-0.0352,-0.0389,-0.0392,-0.0379,-0.0381,-0.0382,-0.0383,0,0,0,0,0,0,0,-0.0133,-0.0141,-0.0201,-0.0196,-0.02,-0.0223,-0.023,-0.0256,-0.0295,-0.0265,-0.0268,-0.0275,-0.0331,-0.0349,-0.0354,-0.0393,-0.0379,-0.0381,-0.0383,-0.0384,-0.0451,-0.0451,0,0,0,0,0,0,-0.012,-0.0137,-0.0198,-0.0203,-0.0168,-0.0224,-0.0232,-0.0243,-0.0295,-0.0303,-0.0275,-0.0277,-0.0344,-0.035,-0.0356,-0.0378,-0.0382,-0.0384,-0.0386,-0.0451,-0.0451,-0.0451,0,0,0,0,0,0,-0.0118,-0.0124,-0.0195,-0.0171,-0.0181,-0.0225,-0.0236,-0.0244,-0.0259,-0.0303,-0.031,-0.028,-0.0345,-0.0352,-0.0382,-0.0381,-0.0386,-0.0388,-0.0451,-0.0451,-0.0451,-0.0421,0,0,0,0,0,0,-0.0115,-0.0123,-0.0124,-0.017,-0.0182,-0.0214,-0.0237,-0.0246,-0.0263,-0.0266,-0.031,-0.0317,-0.0345,-0.0378,-0.0385,-0.0385,-0.039,-0.0451,-0.0451,-0.0451,-0.0422,-0.042,-0.0419,0,0,0,0,0,-0.0112,-0.0112,-0.0124,-0.0131,-0.0183,-0.0213,-0.0222,-0.0254,-0.0263,-0.0267,-0.0302,-0.0315,-0.0384,-0.0381,-0.0389,-0.0389,-0.045,-0.0451,-0.0451,-0.0423,-0.042,-0.0419,0,0,0,0,0,0,-0.0076,-0.0118,-0.0132,-0.0144,-0.0173,-0.022,-0.0227,-0.0248,-0.028,-0.0282,-0.0321,-0.0331,-0.0357,-0.0376,-0.0371,-0.0409,-0.0418,-0.042,-0.0393,-0.0392,-0.039,-0.0364,-0.0393,0,0,0,0,0,-0.0068,-0.0079,-0.0121,-0.0129,-0.0142,-0.0182,-0.0198,-0.022,-0.0254,-0.0268,-0.03,-0.0333,-0.0365,-0.038,-0.0411,-0.0431,-0.0433,-0.0435,-0.0433,-0.0432,-0.0416,-0.0436,-0.0434,-0.0452,-0.0452,-0.0452,0,0,-0.0056,-0.0079,-0.0086,-0.0122,-0.0147,-0.0163,-0.0192,-0.0212,-0.0225,-0.027,-0.0295,-0.033,-0.037,-0.0397,-0.041,-0.0413,-0.0425,-0.0432,-0.0431,-0.0416,-0.0436,-0.0434,-0.0433,-0.0452,-0.0452,-0.0452,0,0,-0.0038,-0.0058,-0.0063,-0.0084,-0.0117,-0.0143,-0.0145,-0.0189,-0.0208,-0.0236,-0.0275,-0.0307,-0.0351,-0.0384,-0.0405,-0.0411,-0.0418,-0.0419,-0.0389,-0.0409,-0.0407,-0.0406,-0.0391,-0.0389,-0.0416,-0.0416,-0.0416,0,-0.002,-0.0034,-0.0067,-0.0077,-0.0088,-0.013,-0.0134,-0.0162,-0.021,-0.0218,-0.0236,-0.0303,-0.0344,-0.0375,-0.0383,-0.0406,-0.0405,-0.0394,-0.0406,-0.0404,-0.0404,-0.0389,-0.0387,-0.0415,-0.0415,-0.0415,-0.0415,0,-0.001,-0.0019,-0.0021,-0.0047,-0.0063,-0.0072,-0.0112,-0.0127,-0.015,-0.0178,-0.0209,-0.0269,-0.0302,-0.0328,-0.036,-0.0376,-0.0372,-0.0402,-0.0407,-0.04,-0.0385,-0.0383,-0.0413,-0.0413,-0.0414,-0.0414,0,0,0.0028,-0.0007,-0.0006,-0.0009,-0.0046,-0.0056,-0.007,-0.0093,-0.0088,-0.0142,-0.0139,-0.0216,-0.0239,-0.0264,-0.0312,-0.0337,-0.0338,-0.0361,-0.0363,-0.0338,-0.0351,-0.0362,-0.0361,-0.0372,-0.0372,-0.0372,-0.0337,0,0.005,0.0045,0.002,0.0022,0.0019,-0.0014,-0.0019,-0.0044,-0.0065,-0.0073,-0.0134,-0.0157,-0.0218,-0.0231,-0.0267,-0.0319,-0.0334,-0.0343,-0.0368,-0.0367,-0.0373,-0.0361,-0.0351,-0.0322,-0.0335,-0.0335,-0.0335,0,0.0072,0.0067,0.0075,0.0065,0.0063,0.0061,0.0063,0.0051,0.0026,0.0013,-0.0019,-0.0065,-0.011,-0.0165,-0.0233,-0.0233,-0.0282,-0.0325,-0.0326,-0.0343,-0.0376,-0.0335,-0.0318,-0.0332,-0.0332,-0.0332,-0.0332,0,0.0121,0.0109,0.0122,0.0116,0.0096,0.0107,0.0101,0.0086,0.0095,0.0074,0.009,0.0019,0.0003,-0.0078,-0.0174,-0.0199,-0.0237,-0.0285,-0.0336,-0.0335,-0.0335,-0.0336,-0.0327,-0.0327,-0.0327,-0.0327,-0.0327,0,0.0157,0.0166,0.0151,0.0156,0.0185,0.0158,0.0195,0.018,0.0187,0.0219,0.0143,0.0158,0.0022,-0.0025,-0.0126,-0.021,-0.0198,-0.0314,-0.0331,-0.0323,-0.0323,-0.0345,-0.0348,-0.0326,-0.0326,-0.0326,-0.0326,0,0.0207,0.0191,0.0207,0.0202,0.0208,0.0232,0.0256,0.0287,0.0285,0.0332,0.033,0.0277,0.0215,0.0088,-0.003,-0.013,-0.0226,-0.0261,-0.0226,-0.0241,-0.0317,-0.0319,-0.0305,-0.0305,-0.0305,-0.0305,-0.0305,0,0.0231,0.0245,0.0252,0.0273,0.0275,0.0309,0.0339,0.0337,0.0375,0.041,0.0441,0.0396,0.0368,0.0203,0.0008,-0.015,-0.0189,-0.0241,-0.0309,-0.0299,-0.0316,-0.0318,-0.0319,-0.0282,-0.0282,-0.0282,-0.0282,0,0.0281,0.0285,0.0297,0.034,0.0374,0.0411,0.0453,0.0495,0.0514,0.0557,0.0608,0.0592,0.0436,0.0257,0.0025,-0.0089,-0.0222,-0.0246,-0.0239,-0.03,-0.0279,-0.0296,-0.0298,-0.0282,-0.0282,-0.0282,-0.0282,-0.0282,0.0327,0.0348,0.0367,0.0409,0.0448,0.05,0.0535,0.0564,0.0622,0.0621,0.067,0.0608,0.0466,0.012,-0.0024,-0.0204,-0.0212,-0.0294,-0.0294,-0.0294,-0.0308,-0.029,-0.0294,-0.0294,-0.0295,-0.0295,-0.0295,0,0.0366,0.0394,0.0435,0.0474,0.0507,0.053,0.0601,0.0595,0.0631,0.0601,0.0597,0.0461,0.0295,0.0131,-0.0131,-0.0268,-0.0286,-0.0311,-0.0303,-0.0303,-0.0302,-0.0318,-0.0306,-0.0307,-0.0307,-0.0307,0,0,0.0391,0.0421,0.043,0.0494,0.054,0.0566,0.06,0.0585,0.0549,0.0473,0.0418,0.0354,0.0261,0.0067,-0.0084,-0.0207,-0.0242,-0.0238,-0.0217,-0.0193,-0.0192,-0.0279,-0.03,0,0,0,0,0]}],[{"header":{"parameterUnit":"m.s-1","parameterCategory":2,"la1":30.2991,"la2":30.254,"lo1":-89.0895,"lo2":-89.0444,"dy":0.0017,"dx":0.0017,"nx":28,"ny":28,"refTime":"2024-06-16T09:00:00:Z","depth":"4","parameterNumber":2,"parameterNumberName":"U-component_of_CURRENTS"},"data":[0,0,0,0,0,0,0,0,0,0,0,0,0,0,0,0,0,0,0,0,0,0,0,0,0,0,0,0,0,0,0,0,0,0,0,0,0,0,0,0,0,0,0,0,0,0,0,0,0,0,0,0,0,0,0,0,0,0,0.1141,0.1141,0,0.117,0.117,0.117,0.1203,0.1204,0.1204,0.1205,0.1251,0.1252,0.1253,0,0,0,0,0,0,0,0,0,0,0,0,0,0.1107,0.1107,0.1141,0.1141,0.1141,0.117,0.117,0.117,0.1203,0.1204,0.1204,0.1205,0.1251,0.1252,0.1253,0,0,0,0,0,0,0,0,0,0,0,0,0,0.1126,0.1107,0.114,0.1162,0.1164,0.117,0.117,0.1171,0.1203,0.1204,0.1204,0.1205,0.1251,0.1252,0.1253,0.1243,0,0,0.1256,0.1257,0,0,0,0,0,0,0,0,0.1125,0.1127,0.1158,0.116,0.1163,0.1184,0.1175,0.1196,0.1203,0.1187,0.1205,0.1206,0.123,0.1233,0.1236,0.1245,0.1247,0.1256,0.1257,0.1257,0.1258,0,0,0,0,0,0,0,0.1124,0.1126,0.1151,0.1158,0.1161,0.1168,0.1171,0.1179,0.1204,0.1189,0.1191,0.1195,0.1232,0.1234,0.1237,0.1248,0.1256,0.1257,0.1258,0.1258,0.1312,0.1312,0,0,0,0,0,0,0.1121,0.1125,0.115,0.1152,0.1146,0.1168,0.1172,0.1176,0.1203,0.1208,0.1195,0.1197,0.1232,0.1236,0.1239,0.1302,0.1257,0.1258,0.1259,0.1311,0.1312,0.1313,0,0,0,0,0,0,0.112,0.1123,0.1149,0.114,0.1144,0.1167,0.1172,0.1176,0.1203,0.1208,0.1213,0.122,0.1233,0.1237,0.1267,0.1301,0.1259,0.126,0.131,0.1311,0.1312,0.1382,0,0,0,0,0,0,0.1119,0.1123,0.1138,0.114,0.1144,0.1165,0.1171,0.1176,0.1203,0.1207,0.1231,0.1234,0.1234,0.1266,0.1268,0.1302,0.1261,0.1309,0.1311,0.1312,0.1379,0.1385,0.1391,0,0,0,0,0,0.1118,0.113,0.1139,0.1143,0.116,0.1166,0.1169,0.1188,0.1204,0.1215,0.1236,0.1235,0.1276,0.1267,0.127,0.1305,0.1308,0.131,0.1312,0.1376,0.1384,0.1391,0,0,0,0,0,0,0.1125,0.1134,0.1144,0.116,0.117,0.1172,0.1191,0.12,0.1225,0.124,0.1245,0.125,0.1287,0.1282,0.1271,0.1322,0.1292,0.1294,0.134,0.1347,0.1353,0.1341,0.1262,0,0,0,0,0,0.1133,0.1147,0.1152,0.1168,0.1176,0.1188,0.1199,0.1211,0.1226,0.1239,0.1256,0.1274,0.1291,0.1309,0.1316,0.1347,0.134,0.1369,0.1375,0.1381,0.1371,0.1403,0.1411,0.1318,0.1318,0.1318,0,0,0.114,0.1149,0.1158,0.1172,0.1184,0.1194,0.1198,0.122,0.1238,0.124,0.1281,0.1296,0.1302,0.1336,0.1353,0.1342,0.1404,0.1383,0.1388,0.1375,0.1405,0.1415,0.1423,0.1319,0.1319,0.1319,0,0,0.1151,0.1171,0.1183,0.1192,0.1213,0.1218,0.1229,0.1246,0.1268,0.13,0.131,0.1345,0.137,0.1385,0.1394,0.1436,0.1431,0.1444,0.1476,0.1507,0.1515,0.1522,0.1529,0.1536,0.1453,0.1454,0.1454,0,0.1164,0.1177,0.1188,0.12,0.1213,0.123,0.1244,0.1262,0.129,0.1314,0.1323,0.1376,0.1391,0.1429,0.145,0.1452,0.1459,0.1452,0.1517,0.1523,0.1529,0.1534,0.1541,0.1457,0.1457,0.1456,0.1456,0,0.1172,0.1193,0.1203,0.1223,0.1237,0.1254,0.1273,0.1302,0.1335,0.1355,0.1409,0.143,0.1466,0.148,0.1483,0.1535,0.1522,0.152,0.1501,0.1543,0.1545,0.1551,0.1462,0.1461,0.146,0.1459,0,0,0.1169,0.1202,0.1209,0.1224,0.1253,0.1262,0.1299,0.1333,0.1366,0.1408,0.1453,0.1497,0.1524,0.1533,0.1548,0.1575,0.1635,0.1573,0.1573,0.1584,0.1694,0.1602,0.1599,0.1655,0.1656,0.1657,0.168,0,0.1175,0.1199,0.1217,0.1246,0.1259,0.1289,0.1317,0.1355,0.1398,0.1447,0.1488,0.1537,0.154,0.1575,0.1606,0.1627,0.1653,0.1628,0.1646,0.1646,0.1563,0.1603,0.1661,0.1684,0.1685,0.1686,0.1687,0,0.117,0.119,0.1218,0.1259,0.1269,0.1294,0.1349,0.1379,0.1446,0.1485,0.1544,0.1577,0.1636,0.163,0.1687,0.1676,0.1691,0.1696,0.1698,0.1586,0.1564,0.1631,0.1697,0.1697,0.1696,0.1695,0.1694,0,0.1147,0.1189,0.1216,0.1228,0.1274,0.1307,0.1341,0.1401,0.1433,0.1522,0.156,0.1626,0.1673,0.1703,0.1737,0.1725,0.1783,0.1768,0.1688,0.1681,0.1727,0.172,0.18,0.18,0.18,0.18,0.18,0,0.113,0.1153,0.1214,0.1225,0.1264,0.1306,0.1359,0.1403,0.1469,0.1508,0.1588,0.162,0.1699,0.1743,0.1755,0.1741,0.1807,0.1689,0.1684,0.1755,0.175,0.1732,0.1723,0.1801,0.1801,0.1801,0.18,0,0.1091,0.113,0.1164,0.1229,0.1253,0.1285,0.1359,0.1391,0.1466,0.1519,0.1553,0.1639,0.1696,0.175,0.1802,0.1756,0.1757,0.1736,0.1806,0.1805,0.1623,0.1618,0.1631,0.1628,0.1625,0.1623,0.1621,0,0.1069,0.1083,0.1159,0.1184,0.122,0.1276,0.1308,0.1384,0.1413,0.151,0.1523,0.1615,0.1666,0.1655,0.1723,0.1737,0.1721,0.17,0.1652,0.1613,0.1608,0.1607,0.1605,0.1617,0.1617,0.1616,0.1615,0,0.1027,0.1067,0.1097,0.1146,0.1191,0.1225,0.1282,0.1288,0.1369,0.1447,0.1461,0.149,0.1549,0.1588,0.1624,0.1628,0.17,0.1673,0.1677,0.1631,0.1597,0.1594,0.1595,0.1606,0.1608,0.1609,0.1609,0,0.1002,0.1014,0.1062,0.1096,0.1146,0.1158,0.1195,0.1221,0.1251,0.1348,0.1351,0.1445,0.1529,0.1532,0.1561,0.1568,0.1535,0.1471,0.1485,0.1495,0.1443,0.1379,0.1316,0,0,0,0,0,0.0968,0.0974,0.1004,0.1033,0.108,0.1108,0.1164,0.1199,0.1273,0.1248,0.1291,0.1338,0.1372,0.1419,0.14,0.1511,0.1552,0.1482,0.1488,0.1557,0.1568,0.152,0,0,0,0,0,0,0.0944,0.0974,0.098,0.0972,0.0982,0.1019,0.1053,0.1104,0.1089,0.1171,0.1199,0.1259,0.1321,0.1378,0.1378,0.1394,0.1369,0.154,0.1537,0.1552,0.1561,0.1569,0.1524,0,0,0,0,0]},{"header":{"parameterUnit":"m.s-1","parameterCategory":2,"la1":30.2991,"la2":30.254,"lo1":-89.0895,"lo2":-89.0444,"dy":0.0017,"dx":0.0017,"nx":28,"ny":28,"refTime":"2024-06-16T09:00:00:Z","depth":"4","parameterNumber":3,"parameterNumberName":"V-component_of_CURRENTS"},"data":[0,0,0,0,0,0,0,0,0,0,0,0,0,0,0,0,0,0,0,0,0,0,0,0,0,0,0,0,0,0,0,0,0,0,0,0,0,0,0,0,0,0,0,0,0,0,0,0,0,0,0,0,0,0,0,0,0,0,-0.0085,-0.0085,0,-0.0113,-0.0113,-0.0113,-0.0128,-0.0128,-0.0128,-0.0128,-0.0151,-0.0151,-0.0152,0,0,0,0,0,0,0,0,0,0,0,0,0,-0.0043,-0.0043,-0.0085,-0.0085,-0.0086,-0.0113,-0.0113,-0.0114,-0.0128,-0.0128,-0.0128,-0.0128,-0.015,-0.0151,-0.0152,0,0,0,0,0,0,0,0,0,0,0,0,0,-0.0064,-0.0043,-0.0085,-0.0097,-0.0098,-0.0113,-0.0113,-0.0114,-0.0128,-0.0128,-0.0128,-0.0128,-0.015,-0.0151,-0.0152,-0.0153,0,0,-0.0154,-0.0154,0,0,0,0,0,0,0,0,-0.0063,-0.0065,-0.0095,-0.0096,-0.0098,-0.0118,-0.0107,-0.0127,-0.0128,-0.0116,-0.0128,-0.0128,-0.014,-0.0141,-0.0145,-0.0154,-0.0155,-0.0154,-0.0155,-0.0155,-0.0155,0,0,0,0,0,0,0,-0.0061,-0.0064,-0.0095,-0.0095,-0.0097,-0.0101,-0.0104,-0.011,-0.0126,-0.0117,-0.0118,-0.0123,-0.014,-0.0144,-0.0146,-0.0156,-0.0154,-0.0155,-0.0155,-0.0156,-0.0135,-0.0135,0,0,0,0,0,0,-0.006,-0.0063,-0.0094,-0.0096,-0.0081,-0.0101,-0.0105,-0.0111,-0.0126,-0.0128,-0.0122,-0.0123,-0.0143,-0.0145,-0.0146,-0.013,-0.0155,-0.0156,-0.0156,-0.0136,-0.0135,-0.0134,0,0,0,0,0,0,-0.0059,-0.0062,-0.0093,-0.0081,-0.0085,-0.0102,-0.0108,-0.0111,-0.0117,-0.013,-0.0133,-0.0126,-0.0143,-0.0145,-0.0147,-0.0132,-0.0156,-0.0157,-0.0138,-0.0136,-0.0135,-0.011,0,0,0,0,0,0,-0.0057,-0.0062,-0.0066,-0.0081,-0.0086,-0.0099,-0.0108,-0.0111,-0.012,-0.0121,-0.0134,-0.0136,-0.0143,-0.0146,-0.0148,-0.0134,-0.0157,-0.0139,-0.0137,-0.0135,-0.0112,-0.0108,-0.0104,0,0,0,0,0,-0.0056,-0.0061,-0.0066,-0.007,-0.0091,-0.0098,-0.0101,-0.0113,-0.012,-0.0119,-0.0126,-0.0136,-0.0135,-0.0146,-0.0149,-0.0134,-0.014,-0.0137,-0.0135,-0.0114,-0.0109,-0.0105,0,0,0,0,0,0,-0.0048,-0.0063,-0.0069,-0.008,-0.0087,-0.0101,-0.0105,-0.0113,-0.0118,-0.012,-0.0132,-0.0134,-0.0127,-0.0133,-0.0145,-0.012,-0.0136,-0.0134,-0.0118,-0.0114,-0.011,-0.0103,-0.0158,0,0,0,0,0,-0.0047,-0.0052,-0.0067,-0.0074,-0.0078,-0.0091,-0.0097,-0.0103,-0.0111,-0.0114,-0.0123,-0.0125,-0.0119,-0.012,-0.012,-0.0113,-0.0137,-0.0101,-0.0097,-0.0094,-0.0088,-0.0112,-0.011,-0.0127,-0.0127,-0.0127,0,0,-0.0047,-0.0055,-0.0059,-0.0072,-0.008,-0.0075,-0.0095,-0.0101,-0.0091,-0.0115,-0.0108,-0.0116,-0.0115,-0.0103,-0.01,-0.0107,-0.0104,-0.0091,-0.0089,-0.0085,-0.0109,-0.0108,-0.0107,-0.0125,-0.0126,-0.0126,0,0,-0.0039,-0.0054,-0.0052,-0.0054,-0.0063,-0.0068,-0.0068,-0.0081,-0.0082,-0.0079,-0.0086,-0.0084,-0.0086,-0.0077,-0.0073,-0.0047,-0.0084,-0.0046,-0.0022,-0.0045,-0.0044,-0.0044,-0.0087,-0.0091,-0.0043,-0.0043,-0.0043,0,-0.0037,-0.0036,-0.0052,-0.0045,-0.0044,-0.0061,-0.0052,-0.0051,-0.0061,-0.006,-0.0072,-0.0067,-0.0069,-0.0046,-0.0033,-0.0038,-0.007,-0.0043,-0.0042,-0.0042,-0.0042,-0.0086,-0.0091,-0.0042,-0.0042,-0.0042,-0.0042,0,-0.0022,-0.0021,-0.0019,-0.0013,-0.0012,-0.001,-0.001,-0.0007,-0.0015,-0.0019,-0.0012,-0.0018,-0.0017,-0.0011,-0.0014,-0.0004,-0.0034,-0.0038,-0.0058,-0.0039,-0.0087,-0.0092,-0.0039,-0.004,-0.004,-0.0041,0,0,-0.0016,-0.001,-0.0008,0.0001,0.0004,0.0006,0.0026,0.0034,0.0044,0.0034,0.004,0.0054,0.0034,0.0039,0.0032,0.0021,-0.0008,-0.0007,-0.0009,-0.0059,-0.0083,-0.0079,-0.0085,-0.0021,-0.0022,-0.0022,-0.0124,0,0.0001,0.0019,0.002,0.0044,0.0053,0.0051,0.0073,0.0079,0.0074,0.0075,0.0068,0.0069,0.0059,0.0055,0.0043,0.0007,-0.0018,0.0018,-0.0087,-0.009,-0.0095,-0.0088,-0.0023,-0.0128,-0.0129,-0.013,-0.013,0,0.002,0.0029,0.0052,0.0073,0.0077,0.0092,0.0112,0.0127,0.0129,0.0124,0.0116,0.0097,0.0088,0.0071,0.0011,0.0028,-0.0024,-0.0057,-0.0062,-0.0067,-0.0094,-0.0146,-0.014,-0.0139,-0.0138,-0.0138,-0.0137,0,0.0033,0.0055,0.0073,0.008,0.0101,0.0115,0.0126,0.0138,0.0149,0.0146,0.014,0.0119,0.0102,0.0046,-0.0017,-0.0014,-0.0099,-0.0106,-0.0156,-0.0158,-0.0145,-0.0144,-0.0157,-0.0157,-0.0157,-0.0156,-0.0156,0,0.0051,0.0067,0.0081,0.0091,0.0118,0.0127,0.0153,0.0163,0.017,0.0179,0.0158,0.0154,0.0094,0.0039,-0.0023,-0.0105,-0.0111,-0.0152,-0.0176,-0.0134,-0.013,-0.015,-0.0148,-0.016,-0.0159,-0.0159,-0.0158,0,0.0061,0.0071,0.0092,0.0114,0.0124,0.014,0.0165,0.0181,0.0187,0.0195,0.0191,0.0165,0.0102,0.0031,-0.0063,-0.0111,-0.0188,-0.0219,-0.0182,-0.0203,-0.0238,-0.0233,-0.0291,-0.0291,-0.0292,-0.0292,-0.0293,0,0.0066,0.0078,0.0103,0.0114,0.0124,0.0149,0.0169,0.0187,0.02,0.0204,0.0204,0.0155,0.0127,-0.0007,-0.0076,-0.0205,-0.0214,-0.0271,-0.0234,-0.023,-0.0249,-0.0243,-0.0238,-0.0293,-0.0293,-0.0293,-0.0294,0,0.007,0.0078,0.0092,0.0116,0.0135,0.0161,0.0185,0.0199,0.0219,0.0224,0.0211,0.0155,0.0085,-0.0002,-0.0101,-0.0187,-0.0237,-0.0276,-0.0275,-0.0241,-0.0234,-0.025,-0.0245,-0.0295,-0.0295,-0.0295,-0.0295,0,0.0067,0.0074,0.0089,0.0111,0.0135,0.0159,0.018,0.0196,0.0211,0.022,0.0215,0.0153,0.0121,0.0005,-0.0083,-0.0166,-0.0185,-0.0216,-0.0219,-0.0218,-0.0152,-0.013,-0.018,0,0,0,0,0,0.006,0.0063,0.0081,0.0102,0.0128,0.014,0.0183,0.0204,0.0228,0.022,0.022,0.016,0.005,0.0008,-0.0076,-0.01,-0.0207,-0.0201,-0.0246,-0.0304,-0.0302,-0.0234,0,0,0,0,0,0,0.0048,0.0061,0.0072,0.0089,0.01,0.0127,0.0155,0.0177,0.0178,0.0195,0.0142,0.0125,0.002,0.0089,-0.0085,-0.0108,-0.015,-0.0248,-0.025,-0.0305,-0.0303,-0.0302,-0.0232,0,0,0,0,0]}]]